Nogales, AZ

7:12 PM MST on July 20, 2017 (GMT -0700)
Nogales International

Weather History for KOLS - November, 2012

Change the Weather History Date:

Wednesday, November 21, 2012

  Actual Average (KFHU) Record (KFHU)
Temperature  
Mean Temperature 66 °F -  
Max Temperature 80 °F 65 °F 78 °F (1996)
Min Temperature 50 °F 43 °F 29 °F (1985)
Growing Degree Days 16 (Base 50)    
Moisture  
Dew Point 34 °F    
Average Humidity 40    
Maximum Humidity 61    
Minimum Humidity 15    
Precipitation  
Precipitation 0.00 in - - ()
Sea Level Pressure  
Sea Level Pressure 29.96 in    
Wind  
Wind Speed 4 mph (ESE)    
Max Wind Speed 9 mph    
Max Gust Speed 17 mph    
Visibility 10 miles    
Events      
Averages and records for this station are not official NWS values.
T = Trace of Precipitation, MM = Missing Value Source: NWS Daily Summary

Daily Weather History Graph

Daily Weather History Graph

Search for Another Location

Airport or City:

Trip Planner

Search our weather history database for the weather conditions in past years. The results will help you decide how hot, cold, wet, or windy it might be!

Date:

Astronomy

Nov. 21, 2012 Rise Set
Actual Time 6:56 AM MST 5:21 PM MST
Civil Twilight 6:30 AM MST 5:47 PM MST
Nautical Twilight 6:01 AM MST 6:17 PM MST
Astronomical Twilight 5:31 AM MST 6:46 PM MST
Moon 1:19 PM MST 12:42 AM MST
Length of Visible Light 11h 17m
Length of Day
10h 25m
Waxing Gibbous, 62% of the Moon is Illuminated
Nov 21
Waxing Gibbous
Nov 28
Full
Dec 6
Last Quarter
Dec 13
New
Dec 19
First Quarter

Hourly Weather History & Observations

Time (MST) Temp. Dew Point Humidity Pressure Visibility Wind Dir Wind Speed Gust Speed Precip Events Conditions
12:54 AM 57.9 °F 37.9 °F 47% 29.95 in 10.0 mi Calm Calm - N/A   Clear
1:54 AM 52.0 °F 39.0 °F 61% 29.96 in 10.0 mi East 4.6 mph - N/A   Clear
2:54 AM 53.1 °F 37.9 °F 57% 29.96 in 10.0 mi East 6.9 mph - N/A   Clear
3:54 AM 51.1 °F 37.9 °F 61% 29.96 in 10.0 mi East 3.5 mph - N/A   Mostly Cloudy
4:54 AM 52.0 °F 39.0 °F 61% 29.96 in 10.0 mi SSE 3.5 mph - N/A   Clear
5:54 AM 51.1 °F 37.9 °F 61% 29.99 in 10.0 mi NNE 3.5 mph - N/A   Mostly Cloudy
6:54 AM 51.1 °F 37.9 °F 61% 30.00 in 10.0 mi ESE 3.5 mph - N/A   Clear
7:54 AM 53.1 °F 39.0 °F 59% 30.02 in 10.0 mi South 3.5 mph - N/A   Partly Cloudy
8:54 AM 60.1 °F 39.9 °F 47% 30.02 in 10.0 mi Calm Calm - N/A   Clear
9:54 AM 68.0 °F 39.0 °F 35% 30.01 in 10.0 mi SSE 3.5 mph - N/A   Clear
10:54 AM 73.9 °F 36.0 °F 25% 29.98 in 10.0 mi Variable 4.6 mph - N/A   Clear
11:54 AM 75.9 °F 33.1 °F 21% 29.96 in 10.0 mi SE 8.1 mph - N/A   Mostly Cloudy
12:54 PM 80.1 °F 28.0 °F 15% 29.92 in 10.0 mi SSW 8.1 mph 17.3 mph N/A   Clear
1:54 PM 80.1 °F 28.0 °F 15% 29.91 in 10.0 mi WSW 9.2 mph - N/A   Clear
2:54 PM 75.9 °F 28.9 °F 18% 29.91 in 10.0 mi WNW 6.9 mph - N/A   Partly Cloudy
3:54 PM 77.0 °F 28.0 °F 17% 29.91 in 10.0 mi NW 5.8 mph - N/A   Clear
4:54 PM 75.0 °F 28.0 °F 18% 29.91 in 10.0 mi West 4.6 mph - N/A   Clear
5:54 PM 69.1 °F 26.1 °F 20% 29.94 in 10.0 mi West 3.5 mph - N/A   Clear
6:54 PM 60.1 °F 30.0 °F 32% 29.98 in 10.0 mi East 3.5 mph - N/A   Clear
7:54 PM 55.9 °F 30.9 °F 39% 29.99 in 10.0 mi East 3.5 mph - N/A   Clear
8:54 PM 54.0 °F 32.0 °F 43% 29.99 in 10.0 mi East 4.6 mph - N/A   Clear
9:54 PM 53.1 °F 30.9 °F 43% 29.98 in 10.0 mi ENE 5.8 mph - N/A   Clear
10:54 PM 51.1 °F 30.9 °F 46% 29.97 in 10.0 mi ENE 5.8 mph - N/A   Clear
11:54 PM 50.0 °F 30.9 °F 48% 29.97 in 10.0 mi Calm Calm - N/A   Clear